This is the latest recevied weather packets stored in our database for station/object KD4WLE. If no packets are shown the sender has not sent any weather packets the latest 1 day(s).
| Time | Temp. | Humidity | Pressure | Rain* | Wind** | Luminosity | Snow |
|---|---|---|---|---|---|---|---|
| 1778020244 | 26.67° C | 56% | 1016.3 hPa | 0 mm | 0.89 m/s, 354° | 141 W/m² | - |
| 1778019940 | 26.11° C | 57% | 1016.6 hPa | 0 mm | 0.89 m/s, 319° | 157 W/m² | - |
| 1778019636 | 26.11° C | 56% | 1016.4 hPa | 0 mm | 0.89 m/s, 323° | 192 W/m² | - |
| 1778019334 | 26.67° C | 56% | 1016.3 hPa | 0 mm | 1.34 m/s, 263° | 167 W/m² | - |
| 1778019030 | 27.22° C | 54% | 1016.3 hPa | 0 mm | 0.89 m/s, 333° | 194 W/m² | - |
| 1778018727 | 27.22° C | 55% | 1016.3 hPa | 0 mm | 0.89 m/s, 277° | 225 W/m² | - |
| 1778018425 | 26.67° C | 56% | 1016.6 hPa | 0 mm | 1.79 m/s, 263° | 247 W/m² | - |
| 1778018126 | 26.67° C | 57% | 1016.4 hPa | 0 mm | 2.68 m/s, 292° | 263 W/m² | - |
| 1778017820 | 26.67° C | 55% | 1016.4 hPa | 0 mm | 2.24 m/s, 287° | 269 W/m² | - |
| 1778017519 | 27.22° C | 56% | 1016.2 hPa | 0 mm | 1.34 m/s, 39° | 279 W/m² | - |
| 1778017215 | 26.67° C | 56% | 1016.3 hPa | 0 mm | 0.89 m/s, 262° | 304 W/m² | - |
| 1778016913 | 26.67° C | 55% | 1016.2 hPa | 0 mm | 0.89 m/s, 254° | 306 W/m² | - |
| 1778016609 | 26.67° C | 54% | 1016.3 hPa | 0 mm | 0.89 m/s, 21° | 325 W/m² | - |
| 1778016306 | 26.67° C | 55% | 1016.1 hPa | 0 mm | 1.79 m/s, 280° | 347 W/m² | - |
| 1778016002 | 27.22° C | 54% | 1016.2 hPa | 0 mm | 1.79 m/s, 264° | 365 W/m² | - |
| 1778015700 | 27.78° C | 54% | 1016.2 hPa | 0 mm | 1.79 m/s, 263° | 375 W/m² | - |
| 1778015396 | 27.22° C | 56% | 1016.2 hPa | 0 mm | 1.34 m/s, 293° | 399 W/m² | - |
| 1778015093 | 27.22° C | 55% | 1016.1 hPa | 0 mm | 1.34 m/s, 257° | 413 W/m² | - |
| 1778014790 | 27.22° C | 55% | 1016.1 hPa | 0 mm | 2.24 m/s, 290° | 433 W/m² | - |
| 1778014488 | 26.67° C | 55% | 1016.2 hPa | 0 mm | 1.79 m/s, 285° | 386 W/m² | - |
| 1778014185 | 26.67° C | 54% | 1016.4 hPa | 0 mm | 1.79 m/s, 309° | 417 W/m² | - |
| 1778013884 | 26.67° C | 52% | 1016 hPa | 0 mm | 1.79 m/s, 223° | 301 W/m² | - |
| 1778013580 | 27.22° C | 52% | 1016.5 hPa | 0 mm | 1.34 m/s, 301° | 376 W/m² | - |
| 1778013276 | 26.67° C | 55% | 1016.3 hPa | 0 mm | 1.34 m/s, 344° | 456 W/m² | - |
| 1778012972 | 27.22° C | 54% | 1016.4 hPa | 0 mm | 1.34 m/s, 217° | 473 W/m² | - |
* Rain latest hour (hover to see other rain measurements)
** Current wind speed in m/s (hover to see current wind gust speed)